Total_Precipitation_Accumulation
0.64 0.75 0.78 0.89 0.96 1.13 1.33 1.25 0.99 0.85 0.58 0.47 0.55 0.90 1.14 1.63 1.18 0.77 0.28 0.05 0.10 0.38 0.43 0.31 0.24 0.24 0.51 0.75 0.64 0.74 1.05 0.49 0.07 0.03 0.02 0.00 0.01 0.01 0.01 0.00 0.00 0.00 0.06 0.09 0.13
0.45 0.49 0.80 1.01 1.09 1.03 1.01 1.13 1.11 1.01 0.64 0.37 0.33 0.77 1.24 1.81 1.36 0.75 0.31 0.25 0.46 0.94 0.43 0.26 0.29 0.38 0.50 0.71 1.20 1.24 1.35 0.33 0.04 0.02 0.03 0.01 0.01 0.01 0.03 0.01 0.08 0.08 0.05 0.05 0.27
0.51 0.58 0.62 0.78 0.89 1.08 0.93 0.82 0.90 1.07 0.64 0.33 0.40 0.66 1.25 1.86 2.12 0.87 0.50 0.54 0.79 0.95 0.66 0.24 0.60 0.54 0.37 0.78 0.98 1.22 0.82 0.14 0.09 0.14 0.16 0.04 0.03 0.01 0.08 0.11 0.02 0.08 0.09 0.15 0.37
0.68 0.65 0.63 0.75 0.74 0.86 0.90 0.84 0.91 1.30 0.97 0.49 0.54 0.92 1.27 1.76 2.03 1.20 0.68 0.38 0.58 0.81 0.87 0.31 0.51 0.66 0.37 0.48 0.77 0.93 0.41 0.23 0.19 0.30 0.19 0.07 0.05 0.02 0.04 0.02 0.00 0.10 0.14 0.17 0.32
0.74 0.83 0.81 0.70 0.65 0.63 0.68 0.85 1.10 1.22 0.91 0.76 0.82 1.41 1.34 1.56 1.15 1.00 0.47 0.29 0.69 1.07 0.69 0.33 0.33 0.65 0.41 0.18 0.85 0.72 0.52 0.42 0.47 0.38 0.29 0.23 0.15 0.04 0.01 0.02 0.03 0.13 0.14 0.19 0.34
1.05 0.88 0.66 0.58 0.63 0.69 0.78 1.08 1.34 1.29 0.70 0.57 1.11 1.34 1.08 1.14 0.86 1.10 0.54 0.43 0.65 1.07 0.70 0.46 0.28 0.84 0.57 0.44 0.57 0.66 0.73 0.55 0.72 0.55 0.43 0.29 0.17 0.21 0.03 0.06 0.15 0.26 0.30 0.32 0.32
1.09 0.96 0.71 0.61 0.53 0.64 0.75 0.82 0.92 1.00 0.68 0.65 0.98 1.04 1.03 1.00 0.70 1.29 0.50 0.56 0.63 0.92 0.73 0.57 0.31 0.66 0.82 0.67 0.29 0.71 0.82 1.01 0.92 0.74 0.66 0.44 0.37 0.31 0.06 0.10 0.18 0.28 0.28 0.42 0.38
1.22 0.84 0.60 0.59 0.54 0.55 0.57 0.61 0.40 0.38 0.57 0.57 1.18 1.09 1.32 1.09 0.60 0.89 0.42 0.62 0.63 1.01 1.24 1.09 0.46 0.49 0.56 0.82 0.61 0.76 1.36 1.33 0.96 1.25 1.00 0.65 0.30 0.09 0.11 0.13 0.11 0.20 0.38 0.56 0.60
1.44 0.86 0.62 0.54 0.51 0.63 0.77 0.83 0.71 0.65 0.80 1.14 1.32 1.60 1.32 1.40 0.77 0.73 0.37 0.74 0.86 1.20 1.93 1.84 0.98 0.55 0.52 0.95 1.07 0.76 1.14 1.00 0.90 1.01 1.40 0.77 0.24 0.10 0.12 0.17 0.09 0.11 0.31 0.46 0.63
1.06 0.70 0.55 0.39 0.40 0.63 1.85 1.75 1.82 1.39 1.26 1.39 1.68 2.06 1.51 1.54 0.98 0.60 0.45 0.84 1.12 1.60 2.80 3.11 1.91 0.81 0.65 0.71 0.85 0.45 0.58 0.69 0.70 0.67 1.02 1.10 0.36 0.19 0.15 0.18 0.08 0.04 0.11 0.37 0.57
0.58 0.48 0.53 0.47 0.70 1.08 1.83 2.51 2.23 1.63 1.47 1.64 1.74 1.53 1.25 1.02 0.58 0.56 0.69 1.54 1.93 2.21 2.74 2.98 1.91 0.65 0.44 0.57 0.34 0.35 0.29 0.60 0.54 0.54 0.62 0.93 0.67 0.24 0.16 0.20 0.18 0.07 0.05 0.21 0.49
0.61 0.60 0.71 0.59 0.69 1.08 1.44 2.31 1.90 1.53 2.08 1.95 1.10 1.02 0.81 0.67 0.93 0.66 0.88 2.80 2.38 2.07 2.06 2.21 1.02 0.27 0.34 0.66 0.31 0.23 0.21 0.63 0.83 0.70 0.70 0.63 0.86 0.43 0.17 0.16 0.15 0.17 0.13 0.21 0.45
0.73 0.81 0.70 0.61 0.60 0.74 0.86 1.49 1.47 1.46 2.13 2.62 1.89 1.40 1.02 1.03 0.92 0.88 1.50 2.51 1.80 1.52 1.53 1.21 0.46 0.40 0.56 0.91 0.34 0.15 0.09 0.39 1.22 0.92 0.60 0.49 0.58 0.69 0.27 0.15 0.12 0.18 0.22 0.35 0.55
0.80 0.79 0.69 0.70 0.65 0.66 0.81 1.30 1.40 1.46 2.12 3.27 1.94 1.52 1.08 1.10 1.10 0.79 1.51 2.07 1.81 1.60 1.82 1.43 0.45 0.35 0.56 0.99 0.38 0.24 0.09 0.39 0.79 0.59 0.50 0.32 0.45 0.41 0.31 0.21 0.15 0.25 0.28 0.31 0.42
0.62 0.53 0.58 0.82 0.92 1.02 0.92 0.90 1.35 1.59 2.49 2.82 1.89 1.37 1.19 0.92 0.84 0.98 1.39 1.45 0.94 1.21 1.57 1.39 0.65 0.51 0.64 0.71 0.44 0.42 0.11 0.31 0.37 0.27 0.31 0.22 0.53 0.21 0.23 0.22 0.28 0.28 0.17 0.16 0.17
0.61 0.53 0.71 0.76 0.94 0.74 0.64 1.11 1.30 1.65 2.58 2.81 1.92 1.36 0.83 0.60 0.68 0.97 1.41 1.07 0.94 1.03 0.98 0.78 0.68 0.77 0.70 0.48 0.22 0.17 0.13 0.44 0.38 0.48 0.51 0.21 0.27 0.19 0.20 0.20 0.39 0.32 0.15 0.27 0.23
0.95 0.62 0.80 0.69 0.62 0.53 0.96 1.63 1.60 1.38 1.61 1.37 1.12 0.51 0.36 0.40 0.38 0.49 0.90 0.83 0.86 1.07 1.42 1.30 1.11 0.86 0.76 0.35 0.23 0.23 0.58 1.20 1.11 1.15 0.65 0.22 0.08 0.11 0.11 0.10 0.25 0.38 0.25 0.36 0.49
1.46 0.95 0.58 0.46 0.48 0.93 1.49 1.32 1.48 1.07 1.04 0.55 0.34 0.37 0.35 0.23 0.34 0.33 0.45 0.48 0.25 0.17 0.81 1.41 1.87 1.12 0.63 0.28 0.34 0.35 0.58 0.88 0.73 0.35 0.42 0.17 0.22 0.18 0.20 0.19 0.18 0.34 0.46 0.72 0.98
1.07 0.97 0.54 0.32 0.50 1.21 1.30 1.36 1.29 0.97 0.62 0.20 0.29 0.39 0.36 0.16 0.18 0.29 0.38 0.27 0.17 0.16 0.51 0.61 1.13 0.58 0.28 0.08 0.16 0.33 0.45 0.33 0.47 0.21 0.35 0.35 0.30 0.37 0.38 0.39 0.27 0.36 0.69 0.95 1.05
0.81 0.70 0.75 0.46 0.69 1.22 1.12 1.32 0.62 0.43 0.09 0.02 0.18 0.14 0.11 0.09 0.09 0.10 0.19 0.12 0.09 0.08 0.10 0.17 0.58 0.30 0.16 0.13 0.07 0.07 0.13 0.26 0.53 0.41 0.28 0.25 0.24 0.60 0.64 0.59 0.58 0.65 0.87 0.98 0.91
0.78 0.86 1.20 0.82 1.10 1.39 1.16 1.08 0.49 0.18 0.05 0.05 0.03 0.01 0.01 0.03 0.03 0.03 0.07 0.11 0.05 0.06 0.02 0.01 0.16 0.28 0.23 0.25 0.10 0.04 0.14 0.15 0.23 0.22 0.22 0.08 0.14 0.38 0.49 0.43 0.47 0.54 0.68 0.76 0.85
0.96 1.23 1.29 0.87 1.14 1.17 1.06 0.77 0.56 0.17 0.03 0.00 0.01 0.01 0.01 0.01 0.00 0.01 0.02 0.02 0.01 0.00 0.00 0.00 0.04 0.10 0.13 0.03 0.01 0.02 0.01 0.04 0.23 0.09 0.13 0.07 0.07 0.05 0.11 0.14 0.20 0.26 0.29 0.30 0.39
0.95 1.29 1.19 0.68 0.66 0.58 0.46 0.32 0.14 0.08 0.04 0.01 0.01 0.02 0.02 0.01 0.01 0.01 0.00 0.00 0.00 0.00 0.00 0.00 0.05 0.12 0.18 0.16 0.06 0.06 0.02 0.10 0.21 0.39 0.25 0.12 0.04 0.01 0.01 0.02 0.06 0.06 0.05 0.03 0.01
1.16 1.29 1.17 0.78 0.33 0.15 0.31 0.22 0.13 0.09 0.02 0.00 0.00 0.00 0.00 0.00 0.00 0.00 0.00 0.00 0.00 0.00 0.00 0.01 0.03 0.03 0.06 0.09 0.20 0.18 0.03 0.10 0.42 0.55 0.09 0.04 0.00 0.00 0.01 0.00 0.01 0.01 0.01 0.01 0.00
0.95 0.49 0.35 0.35 0.13 0.12 0.17 0.18 0.12 0.05 0.01 0.00 0.01 0.00 0.00 0.01 0.00 0.00 0.00 0.00 0.00 0.00 0.01 0.04 0.05 0.02 0.02 0.06 0.22 0.20 0.08 0.07 0.32 0.17 0.23 0.06 0.00 0.00 0.00 0.00 0.01 0.01 0.00 0.00 0.01
0.65 0.30 0.16 0.03 0.06 0.10 0.05 0.09 0.05 0.00 0.01 0.01 0.01 0.00 0.01 0.01 0.01 0.00 0.00 0.00 0.01 0.00 0.02 0.05 0.09 0.06 0.06 0.05 0.10 0.16 0.04 0.06 0.06 0.02 0.02 0.01 0.00 0.01 0.00 0.01 0.06 0.03 0.01 0.01 0.00
0.59 0.18 0.06 0.06 0.05 0.03 0.02 0.00 0.01 0.00 0.01 0.01 0.01 0.03 0.02 0.01 0.00 0.00 0.00 0.00 0.00 0.01 0.03 0.06 0.08 0.15 0.07 0.04 0.11 0.13 0.04 0.02 0.01 0.00 0.01 0.01 0.01 0.01 0.07 0.18 0.16 0.03 0.01 0.00 0.00